Location: Chiroubles
(46.1812°N, 4.6660°E)
Time: 02:26:46
(UTC+00:00)

Cosmos 1605 Rocket - Pass Details

Date: 15 August 2020
Orbit: 945 x 1005 km, 82.9° (Epoch: 19 September)

Event Time Altitude Azimuth Distance (km) Brightness Sun altitude
Rises 19:43:31 0° 166° (SSE) 3,617 6.6 -9.2°
Reaches altitude 10° 19:46:06 10° 161° (SSE) 2,670 5.8 -9.6°
Maximum altitude 19:51:50 45° 90° (E) 1,266 4.3 -10.4°
Drops below altitude 10° 19:57:35 10° 20° (NNE) 2,676 6.5 -11.3°
Sets 20:00:11 0° 14° (NNE) 3,627 7.3 -11.6°
